RH
86 73 74 80 83 79 80 80 97 98 99 86 95 99 92 85 82 85 86 83 82 77 78 83 94 98 97 90 91 82 79 84 76 71 62 57 60 60 70 63 58 66 62 61 60 63 61
76 72 82 82 77 75 78 75 79 98 95 99 98 94 90 84 86 87 86 84 82 80 80 87 87 99 82 91 82 84 86 83 73 60 59 53 56 55 63 62 61 63 68 71 66 63 62
72 73 82 87 82 74 77 79 80 79 97 94 88 91 88 87 86 87 87 85 84 85 86 91 100 85 85 97 92 98 86 69 63 61 59 52 48 55 57 64 60 65 76 75 66 60 65
72 72 82 83 73 79 76 79 80 79 79 87 93 89 86 87 89 90 88 85 91 97 91 94 97 90 98 100 98 88 80 69 59 52 50 50 46 58 57 57 60 66 71 82 50 63 59
74 77 79 78 79 80 82 82 78 81 80 82 85 87 88 89 88 88 82 83 100 84 88 96 85 82 99 94 96 92 73 59 52 52 53 50 49 62 63 78 82 78 92 85 77 63 62
75 83 72 81 84 84 88 85 88 85 85 85 86 88 90 90 87 79 50 90 86 86 90 75 78 80 94 91 87 65 61 54 61 59 65 68 78 84 85 84 76 80 98 86 88 66 74
76 79 86 84 86 91 91 90 84 86 90 88 88 90 90 88 81 61 56 75 83 86 86 90 91 84 80 89 75 66 54 56 55 61 75 74 90 96 83 74 70 78 88 93 73 62 71
79 84 88 86 94 95 91 88 88 89 95 91 92 93 92 87 71 68 69 92 90 90 94 77 80 78 77 68 77 64 54 66 63 81 75 80 90 73 72 73 79 83 92 88 74 67 74
82 84 87 92 97 95 87 86 91 72 72 94 93 94 77 80 67 72 95 95 98 88 92 87 88 82 76 69 76 72 57 63 70 81 85 85 63 64 72 80 86 87 92 88 84 70 68
84 83 88 92 98 98 85 89 92 94 62 72 68 66 57 62 60 78 95 97 94 93 93 100 93 86 72 66 80 63 58 63 74 82 81 87 72 72 76 85 81 92 68 72 80 88 92
86 85 85 90 98 99 92 87 89 96 78 69 68 62 60 58 69 88 88 96 95 97 92 98 95 84 71 84 75 70 58 68 83 68 70 71 71 86 87 77 74 82 67 76 86 95 98
85 88 84 88 94 99 97 94 94 69 71 64 66 64 62 69 82 92 90 80 83 80 96 100 95 94 94 79 80 74 64 66 73 86 74 79 66 72 81 78 77 72 85 84 90 95 97
90 90 89 88 88 95 98 90 98 96 52 52 51 58 64 70 82 75 79 89 85 94 97 100 100 96 89 88 88 84 89 96 94 98 97 82 80 75 76 89 79 88 97 97 92 100 93
95 87 90 91 90 93 96 92 97 99 92 54 57 63 71 76 82 86 75 86 88 94 95 83 80 96 89 83 81 85 90 97 90 92 100 95 84 85 76 81 92 97 99 98 96 99 92
99 84 92 92 95 96 98 97 97 100 100 80 63 48 66 80 88 90 89 95 100 93 80 84 82 86 100 96 93 88 99 97 92 94 100 100 90 82 83 77 82 93 99 92 100 99 99
99 93 91 92 94 100 98 98 100 99 99 77 68 61 61 73 75 78 91 88 97 83 77 77 81 75 81 90 96 99 99 86 92 82 76 90 98 77 73 86 83 92 82 100 99 97 96
100 94 83 95 93 98 100 100 99 98 92 74 68 79 54 62 58 88 99 96 86 76 80 81 68 79 79 98 84 87 82 75 79 79 77 87 90 77 72 87 68 94 99 99 100 100 97
100 95 74 92 95 96 98 99 99 98 84 61 78 80 46 56 88 93 93 86 76 76 76 77 70 53 71 83 91 90 76 73 65 82 94 83 90 98 72 55 53 59 69 88 98 97 97
99 90 81 48 95 96 98 98 99 99 91 77 90 96 46 52 92 96 81 77 76 80 80 80 69 66 57 64 71 70 67 54 60 79 64 64 77 92 59 54 54 68 65 67 72 80 89
100 97 84 43 86 95 98 93 95 92 79 70 84 82 85 92 90 86 95 88 82 69 71 71 74 59 57 67 65 64 66 55 59 59 56 55 73 74 84 72 69 73 70 72 70 92 89
100 97 91 48 80 96 94 92 87 88 73 70 91 96 89 94 91 87 82 84 88 86 75 73 66 80 81 70 68 74 70 65 53 59 59 58 67 78 66 64 62 61 67 77 91 82 93
95 96 92 66 54 100 97 92 85 86 70 71 86 86 88 90 83 74 84 84 88 84 81 79 79 83 78 82 82 84 80 66 64 62 62 69 76 75 62 59 68 56 59 63 69 72 84
90 93 93 71 53 100 85 89 82 74 71 80 98 98 84 85 81 82 88 81 80 78 69 72 78 78 73 74 75 79 76 79 68 67 68 70 75 82 66 67 53 46 51 60 62 65 74
91 92 91 74 63 84 78 78 74 74 75 78 92 86 82 82 82 82 79 74 74 76 82 75 69 71 59 73 77 74 78 76 67 59 68 68 78 86 86 61 45 38 50 50 60 60 65
92 96 89 78 59 78 78 72 71 72 78 75 89 86 85 81 83 80 76 73 72 73 75 77 67 63 78 69 66 63 64 44 48 52 58 69 77 80 82 85 41 46 51 55 56 51 61
92 97 95 84 51 80 82 78 74 70 74 72 75 81 82 81 75 69 75 75 80 82 77 67 64 69 66 73 69 62 58 64 57 62 58 65 73 74 77 70 32 32 48 42 42 64 54
88 97 95 89 48 82 83 84 75 71 67 69 68 69 74 82 80 75 81 80 82 90 87 83 74 75 68 80 78 75 81 64 71 70 61 72 75 73 79 86 65 48 46 43 52 37 54
87 92 96 92 45 77 82 74 74 68 65 65 60 64 75 86 82 78 71 79 84 89 84 74 76 76 87 77 86 84 84 76 78 65 59 66 70 78 85 86 64 49 49 52 45 58 57
88 90 91 94 64 58 83 76 80 74 68 68 64 63 66 81 78 72 65 63 63 68 83 85 86 84 90 94 93 91 85 85 75 78 58 80 67 64 71 64 45 52 51 45 56 64 61
Wind_Speed
30 29 29 29 28 31 34 39 39 46 54 15 17 8 6 7 6 5 6 7 10 10 10 12 12 10 18 5 2 14 6 14 17 14 7 4 5 3 4 2 1 1 3 4 5 9 6
30 27 27 28 28 31 33 36 38 39 49 43 30 20 14 12 9 8 8 9 11 12 10 11 16 11 7 4 5 11 12 12 15 11 6 4 3 4 5 2 1 1 3 8 6 10 5
28 26 26 26 28 31 33 33 35 36 32 32 25 20 15 12 9 9 10 12 14 14 13 9 5 14 4 6 10 8 6 11 9 13 5 5 7 5 2 2 1 3 6 7 5 2 5
26 26 26 26 29 29 31 32 30 30 30 24 19 18 15 14 14 14 13 15 17 14 7 4 11 9 5 5 12 17 10 12 13 14 14 9 9 5 3 2 4 4 2 5 3 1 3
27 27 26 26 28 29 28 28 28 26 25 24 21 20 18 16 17 17 15 11 15 13 11 17 9 4 6 8 5 14 13 9 15 12 12 9 5 2 3 3 4 4 2 3 8 2 2
27 26 27 27 28 28 28 27 26 23 22 21 21 19 19 17 16 15 13 10 20 22 20 15 10 6 1 4 7 8 8 14 6 6 5 5 4 3 3 3 2 2 2 5 7 5 3
27 26 27 28 28 28 27 24 25 23 19 19 19 19 18 19 16 15 8 7 5 5 9 8 5 7 6 11 10 2 12 9 4 5 3 1 4 4 7 5 4 1 3 10 13 14 9
25 26 28 29 30 29 26 23 22 21 18 16 17 17 17 11 21 18 16 5 3 1 7 13 9 9 12 8 5 2 10 3 2 3 2 4 4 8 6 5 5 6 8 12 13 12 6
24 25 27 29 30 29 27 24 20 19 16 12 15 16 14 6 11 23 23 10 4 6 4 7 6 6 4 5 4 6 4 2 2 3 5 4 3 5 6 2 4 6 8 11 12 11 13
23 24 26 27 29 29 26 25 21 20 16 13 14 16 14 2 6 9 7 11 4 2 4 6 5 4 1 2 4 2 3 2 1 5 4 4 5 4 5 5 7 11 9 15 16 9 4
24 23 26 27 29 29 25 23 25 22 18 14 12 13 15 14 4 5 7 3 3 1 5 4 2 4 5 4 5 1 2 3 3 2 3 6 2 3 6 6 11 8 6 9 12 13 12
24 24 25 27 29 29 27 24 21 23 18 15 13 11 8 8 10 9 5 2 2 5 4 2 2 5 2 4 3 2 2 1 3 4 2 6 0 3 5 4 7 7 9 13 11 6 4
23 23 23 25 26 28 28 25 23 19 18 14 15 13 11 8 2 9 4 2 5 5 1 3 5 2 1 2 3 4 4 2 1 2 2 3 5 3 3 5 3 8 6 4 4 3 4
22 21 23 24 25 26 27 26 26 22 19 12 9 12 8 9 4 4 4 4 8 4 4 0 4 5 3 2 2 1 2 3 5 3 2 2 5 7 5 7 2 5 3 2 4 3 4
22 21 21 23 25 26 26 27 26 27 26 15 9 2 3 11 4 3 3 5 3 2 3 5 3 1 1 1 2 4 4 3 3 9 4 2 5 2 6 4 3 2 3 2 4 3 3
20 21 20 21 24 26 27 27 28 29 29 18 8 5 6 19 6 7 4 7 3 3 2 2 2 1 2 2 2 1 2 4 3 7 6 2 5 5 1 3 6 4 3 1 1 3 3
18 21 20 20 21 24 27 28 30 30 30 15 3 3 11 12 5 6 4 4 4 4 1 3 1 2 1 3 3 2 2 3 4 5 8 3 2 5 1 4 1 3 2 2 2 2 2
20 20 22 20 21 22 25 27 28 30 31 11 3 3 16 4 4 2 2 4 4 3 1 2 2 1 4 4 2 2 3 4 5 6 5 6 2 4 5 2 3 2 1 4 2 2 1
19 20 23 21 21 22 24 26 25 24 24 8 2 1 11 6 4 3 4 3 1 6 4 5 3 3 3 2 1 1 2 3 3 6 3 3 0 4 4 2 2 3 5 4 4 2 2
18 19 22 23 20 21 23 25 24 22 18 7 3 3 4 4 2 4 4 5 5 5 1 2 4 1 3 4 4 1 5 2 4 2 1 2 2 2 3 5 3 5 9 6 3 2 1
20 20 20 23 22 23 25 24 20 18 14 5 3 1 2 1 4 3 2 3 5 7 5 7 4 5 3 4 5 5 3 5 3 7 2 1 1 3 5 5 3 3 4 7 3 2 2
17 20 20 22 22 22 25 23 16 14 11 4 3 3 3 2 1 3 4 4 5 6 5 5 4 6 6 4 1 4 4 4 2 6 5 4 2 1 3 0 3 3 4 2 4 4 4
15 18 20 21 21 23 23 20 13 14 9 3 2 2 4 2 2 4 1 1 3 5 1 3 2 3 4 3 5 8 6 4 4 3 3 3 3 4 4 4 5 2 2 1 0 1 5
15 15 18 19 18 19 18 14 12 14 13 4 3 2 3 0 1 5 6 2 1 2 2 4 1 1 2 6 3 1 3 5 5 5 2 2 2 1 3 5 3 4 2 3 3 5 6
15 14 15 17 15 15 13 10 9 10 14 9 4 1 2 1 1 1 6 5 2 4 3 3 2 3 5 4 3 4 4 3 0 0 2 1 3 2 1 2 6 1 3 4 3 5 7
15 15 13 14 12 12 10 9 8 7 10 7 10 6 1 4 4 1 1 2 4 2 3 4 3 4 3 3 3 2 2 1 4 8 2 3 4 3 1 1 4 2 2 1 2 5 5
15 15 13 12 9 8 6 7 8 7 7 8 5 7 3 1 3 5 4 4 2 1 2 4 4 3 2 2 2 1 3 1 2 2 2 3 2 3 2 3 7 3 2 2 2 5 2
14 16 14 12 8 5 2 4 6 6 6 5 3 6 3 1 4 5 4 4 2 2 1 3 4 2 2 3 2 3 3 2 3 4 3 3 3 4 2 2 6 5 2 5 4 3 3
14 17 15 12 10 7 5 4 5 7 6 4 1 3 3 3 4 5 10 8 5 6 3 1 2 3 3 3 1 1 2 1 4 3 1 3 5 3 7 5 5 6 7 4 5 5 4
Wind_Direction
2 3 5 7 1 1 1 358 359 4 4 317 230 160 117 89 60 6 349 333 325 323 317 304 294 308 164 86 34 357 145 154 142 150 120 107 75 102 111 93 34 120 313 320 297 287 262
8 7 8 8 2 4 3 3 2 11 21 38 59 69 57 50 32 19 351 330 316 311 299 295 285 200 138 127 108 57 114 128 126 117 92 68 125 118 102 87 76 317 279 284 272 269 258
6 3 6 4 3 7 7 7 7 13 24 42 44 40 37 28 15 6 348 328 311 301 294 290 130 139 61 115 138 127 72 86 95 114 83 74 97 76 97 86 311 321 329 309 270 286 250
4 4 6 5 5 8 10 9 10 14 19 24 23 20 18 11 4 359 349 332 324 302 265 199 170 78 57 97 147 137 129 84 94 97 86 82 97 96 66 134 6 344 49 355 290 337 285
3 9 7 4 5 7 10 11 8 14 18 16 14 9 11 11 8 355 353 353 24 55 120 144 122 138 114 112 107 125 129 117 96 83 82 74 67 82 41 68 14 9 288 286 304 212 234
6 5 7 3 2 6 8 14 6 10 17 17 13 10 2 9 7 0 5 59 77 79 93 106 56 72 110 109 109 134 159 127 92 82 47 47 51 61 22 83 238 249 298 286 257 292 185
7 3 1 2 1 2 6 15 18 12 14 20 19 8 6 0 13 9 70 83 27 41 26 48 59 91 113 111 115 108 143 96 100 64 76 15 66 221 220 210 177 157 255 264 267 271 297
7 2 359 359 1 2 7 16 27 31 21 24 24 21 12 32 49 53 74 62 56 345 65 29 69 70 114 138 106 205 143 92 110 90 82 46 236 234 202 212 228 255 276 279 288 273 232
8 4 359 -0 0 5 10 14 25 44 39 36 29 27 32 52 38 50 56 54 56 33 67 37 12 58 95 48 104 165 141 109 107 147 185 185 234 18 164 193 241 249 248 269 262 299 269
7 4 1 1 1 6 14 21 31 43 57 51 39 34 36 143 11 3 49 4 25 13 87 13 22 13 201 260 69 104 152 79 205 216 191 236 248 221 221 238 203 275 231 249 265 288 289
3 4 2 2 2 5 10 19 30 48 66 62 51 43 54 65 54 32 333 18 141 207 76 6 43 314 5 31 141 215 113 348 301 305 146 254 253 228 252 246 170 242 247 259 263 267 291
360 3 4 2 2 3 6 3 8 27 54 63 56 48 84 78 54 1 356 99 330 42 62 35 49 117 28 168 140 93 106 60 261 315 262 245 281 258 221 244 221 283 293 278 258 247 248
359 360 2 0 1 1 4 2 356 359 17 52 71 65 68 76 37 30 50 2 52 69 202 42 97 172 47 102 121 186 185 216 263 331 295 333 251 208 190 287 239 229 271 303 337 216 241
1 359 358 359 358 360 0 1 355 352 347 346 73 68 61 50 33 21 101 49 67 45 67 332 113 113 98 203 47 109 100 284 255 240 306 289 329 194 180 222 267 188 227 266 300 296 293
355 358 358 356 358 358 358 356 356 352 350 329 284 336 48 11 338 150 90 43 71 65 117 127 180 134 109 231 205 216 214 262 264 179 222 285 272 148 201 178 207 45 234 192 266 231 276
350 354 356 356 356 355 355 353 353 353 352 345 302 290 37 4 99 129 63 84 77 36 75 53 86 341 116 111 156 192 217 198 261 180 208 318 289 220 175 130 261 235 325 307 249 299 297
346 352 351 352 354 354 350 353 352 351 350 341 331 6 4 7 77 48 53 31 339 340 46 151 197 140 195 186 218 205 241 237 219 180 190 297 242 294 33 197 167 196 242 236 271 272 309
342 348 353 349 349 352 352 351 352 353 353 11 68 38 349 43 52 40 44 330 327 303 322 300 233 185 181 177 192 266 257 223 196 158 197 209 216 280 245 159 221 208 226 189 243 349 285
337 347 348 350 347 350 350 351 354 355 1 349 39 235 352 20 82 353 327 338 265 9 16 19 14 25 17 177 109 233 284 276 210 180 231 173 284 318 13 28 7 20 313 241 134 208 264
334 341 347 347 347 348 347 351 351 353 0 1 85 36 344 46 34 92 11 351 351 341 354 16 359 328 52 24 353 28 344 303 322 321 183 104 115 142 180 252 315 324 329 357 155 124 75
328 336 342 348 345 347 347 349 347 344 352 5 32 283 195 15 21 66 67 356 347 5 355 20 36 35 297 16 349 7 330 324 344 355 34 82 239 157 241 245 294 278 321 24 78 273 112
322 331 339 348 348 345 351 346 350 346 350 66 106 113 5 90 112 85 360 4 22 330 5 355 50 330 15 82 140 298 348 20 331 327 8 357 280 35 273 205 321 293 355 48 46 48 54
318 329 336 345 354 350 4 3 11 5 8 56 87 119 108 292 83 83 277 322 345 338 5 126 295 321 3 299 230 234 220 259 255 320 312 16 0 20 275 358 316 321 271 4 270 170 156
314 323 332 343 354 1 10 23 24 21 25 32 43 84 79 193 152 162 171 198 238 311 253 302 333 23 278 314 274 212 228 257 258 270 217 334 94 103 269 353 16 241 221 191 239 243 214
308 313 325 337 350 2 6 25 32 38 30 49 16 49 116 156 194 244 161 168 270 289 213 223 260 246 318 345 18 357 340 332 323 117 347 38 111 1 50 223 285 262 217 191 167 282 197
301 301 317 328 343 1 7 18 36 41 23 20 27 8 77 123 238 244 199 259 168 212 317 250 292 293 47 63 39 14 263 251 308 329 137 91 77 115 13 55 260 265 275 95 81 287 204
289 293 302 316 329 1 22 17 17 25 29 13 14 357 342 356 248 165 178 192 149 43 234 297 293 358 21 64 51 303 286 246 269 268 280 322 4 191 211 255 289 231 208 107 105 247 166
279 284 287 301 306 320 316 2 0 0 13 30 40 24 357 234 276 219 214 154 126 100 134 320 350 321 71 101 156 196 186 254 326 255 217 205 183 211 149 221 280 166 126 173 221 280 268
273 270 276 284 288 273 270 267 322 339 346 357 125 1 316 204 252 265 256 250 193 157 153 81 198 328 326 46 351 106 246 181 175 266 190 264 196 204 188 220 223 202 216 216 178 214 231